Regional Weather Roundup
Issued by NWS

Home | Current Version | Previous Version | Text Only | Print | Product List | Glossary Off
Versions: 1 2 3 4 5 6 7 8 9 10 11 12 13 14 15 16 17 18 19 20 21 22 23 24 25 26 27 28 29 30 31 32 33 34 35 36 37 38 39 40 41 42 43 44 45 46 47 48 49 50

000
ASUS43 KLSX 241159
RWRMO

WEATHER SUMMARY FOR MISSOURI
NATIONAL WEATHER SERVICE SPRINGFIELD MO
700 AM CDT SUN MAY 24 2015

NOTE: "FAIR" INDICATES FEW OR NO CLOUDS BELOW 12,000 FEET WITH NO
       SIGNIFICANT WEATHER AND/OR OBSTRUCTIONS TO VISIBILITY.
       CURRENT SKY AND/OR WEATHER CONDITIONS ARE NOT AVAILABLE FOR
       CHILLICOTHE AND FARMINGTON.

MOZ001>031-035>038-043-044-053-054-241300-
...NORTHERN AND WESTERN MISSOURI...

CITY           SKY/WX    TMP DP  RH WIND       PRES   REMARKS
KANSAS CTY INT LGT RAIN  63  63 100 S10       29.88R FOG
6HR MIN TEMP:  61; 6HR MAX TEMP:  63; 6HR PCP:  0.54;

KANSAS C DTWN  CLOUDY    66  62  87 S9        29.88R
6HR MIN TEMP:  63; 6HR MAX TEMP:  66; 6HR PCP:  0.17;

LEE`S SUMMIT   LGT RAIN  64  63  96 S8        29.90R
6HR MIN TEMP:  61; 6HR MAX TEMP:  65; 6HR PCP:  0.17;

ST JOSEPH      RAIN      61  60  97 SE8       29.88R FOG
6HR MIN TEMP:  61; 6HR MAX TEMP:  62; 6HR PCP:  0.37;

KIRKSVILLE     LGT RAIN  61  58  90 E12       30.00F
6HR MIN TEMP:  59; 6HR MAX TEMP:  61; 6HR PCP:  0.67;


$$
MOZ066>068-077>081-088>096-101>105-241300-
...SOUTHWEST MISSOURI...

CITY           SKY/WX    TMP DP  RH WIND       PRES   REMARKS
SPRINGFIELD    CLOUDY    65  61  87 SE10      29.97S
6HR MIN TEMP:  64; 6HR MAX TEMP:  68; 6HR PCP:  0.06;

JOPLIN         LGT RAIN  64  63  96 SE9G20    29.91R
6HR MIN TEMP:  64; 6HR MAX TEMP:  67; 6HR PCP:  1.26;


$$
MOZ032>034-039>042-045>050-055>058-069>072-241300-
...CENTRAL MISSOURI...

CITY           SKY/WX    TMP DP  RH WIND       PRES   REMARKS
COLUMBIA       CLOUDY    64  56  75 SE10      30.00S
6HR MIN TEMP:  61; 6HR MAX TEMP:  64; 6HR PCP:  0.03;

JEFFERSON CITY CLOUDY    67  55  65 SE10      29.99S
6HR MIN TEMP:  66; 6HR MAX TEMP:  68; 6HR PCP: TRACE;

ROLLA          CLOUDY    68  58  70 S13G20    30.01S
6HR MIN TEMP:  62; 6HR MAX TEMP:  68;

SEDALIA        LGT RAIN  62  58  86 SE20      29.95F
6HR MIN TEMP:  61; 6HR MAX TEMP:  62; 6HR PCP:  0.24;

OSAGE BEACH    CLOUDY    70  57  64 S8        29.99R

$$
MOZ051-052-059>065-241300-
...EAST CENTRAL MISSOURI...

CITY           SKY/WX    TMP DP  RH WIND       PRES   REMARKS
ST LOUIS INTL  PTSUNNY   67  55  65 SE10      30.09R
6HR MIN TEMP:  65; 6HR MAX TEMP:  71;

SPIRIT OF STL  PTSUNNY   66  56  70 E9        30.06S
6HR MIN TEMP:  63; 6HR MAX TEMP:  67;

ST CHARLES     PTSUNNY   66  55  67 E8        30.08R
6HR MIN TEMP:  63; 6HR MAX TEMP:  66;


$$
MOZ072>076-082>087-097>100-106>115-241300-
...SOUTH CENTRAL AND SOUTHEAST MISSOURI...

CITY           SKY/WX    TMP DP  RH WIND       PRES   REMARKS
CAPE GIRARDEAU PTSUNNY   67  60  78 SE9       30.12R
6HR MIN TEMP:  64; 6HR MAX TEMP:  67;

FARMINGTON     CLOUDY    66  57  72 S9        30.13S
6HR MIN TEMP:  63; 6HR MAX TEMP:  66;

POPLAR BLUFF   MOSUNNY   69  60  73 S9        30.09R
6HR MIN TEMP:  66; 6HR MAX TEMP:  69;

WEST PLAINS    PTSUNNY   66  59  78 SE9       30.06S
6HR MIN TEMP:  64; 6HR MAX TEMP:  66; 6HR PCP: TRACE;


$$


USA.gov is the U.S. government's official web portal to all federal, state and local government web resources and services.